[[{"header":{"parameterUnit":"m.s-1","parameterCategory":1,"la1":30.2991,"la2":30.254,"lo1":-89.0895,"lo2":-89.0444,"dy":0.0017,"dx":0.0017,"nx":28,"ny":28,"refTime":"2023-08-20T03:00:00:Z","depth":0,"parameterNumber":2,"parameterNumberName":"U-component_of_WINDS"},"data":[0,0,0,0,0,0,0,0,0,0,0,0,0,0,0,0,0,0,0,0,0,0,0,0,0,0,0,0,0,0,0,0,0,0,0,0,0,0,0,0,0,0,0,0,0,0,0,0,0,0,0,0,0,0,0,0,0,0,-0.5655,-0.5656,0,-0.5714,-0.5714,-0.5715,-0.5766,-0.5767,-0.5768,-0.5768,-0.5826,-0.5827,-0.5828,0,0,0,0,0,0,0,0,0,0,0,0,0,-0.5587,-0.5588,-0.5655,-0.5656,-0.5657,-0.5714,-0.5714,-0.5715,-0.5766,-0.5767,-0.5768,-0.5768,-0.5825,-0.5827,-0.5828,0,0,0,0,0,0,0,0,0,0,0,0,0,-0.5628,-0.5589,-0.5655,-0.5689,-0.5693,-0.5714,-0.5714,-0.5715,-0.5766,-0.5767,-0.5768,-0.5769,-0.5825,-0.5826,-0.5828,-0.5819,0,0,-0.5832,-0.5833,0,0,0,0,0,0,0,0,-0.5626,-0.5631,-0.5683,-0.5687,-0.5691,-0.5734,-0.5712,-0.575,-0.5766,-0.5738,-0.5768,-0.5769,-0.5794,-0.5798,-0.5807,-0.5822,-0.5824,-0.5832,-0.5833,-0.5834,-0.5834,0,0,0,0,0,0,0,-0.5623,-0.5629,-0.5678,-0.5684,-0.5689,-0.5701,-0.5708,-0.5719,-0.576,-0.5741,-0.5745,-0.5751,-0.5796,-0.5806,-0.5809,-0.5825,-0.5832,-0.5834,-0.5835,-0.5835,-0.5837,-0.5837,0,0,0,0,0,0,-0.5615,-0.5626,-0.5677,-0.568,-0.566,-0.5702,-0.5709,-0.5719,-0.576,-0.5768,-0.575,-0.5753,-0.5803,-0.5807,-0.5811,-0.5805,-0.5834,-0.5835,-0.5836,-0.5838,-0.5837,-0.5836,0,0,0,0,0,0,-0.5614,-0.5619,-0.5674,-0.5654,-0.5662,-0.5702,-0.5712,-0.572,-0.5729,-0.5768,-0.5775,-0.5752,-0.5804,-0.5809,-0.5817,-0.5808,-0.5836,-0.5837,-0.5839,-0.5838,-0.5837,-0.5791,0,0,0,0,0,0,-0.5611,-0.5618,-0.5615,-0.5654,-0.5663,-0.5679,-0.5712,-0.572,-0.5732,-0.5736,-0.5771,-0.5778,-0.5805,-0.5815,-0.5819,-0.581,-0.5839,-0.584,-0.5839,-0.5837,-0.5794,-0.5789,-0.5784,0,0,0,0,0,-0.5609,-0.5599,-0.5615,-0.5621,-0.566,-0.5679,-0.5684,-0.5716,-0.5731,-0.5728,-0.5753,-0.5777,-0.5808,-0.5815,-0.582,-0.5812,-0.5841,-0.5839,-0.5837,-0.5796,-0.579,-0.5784,0,0,0,0,0,0,-0.5557,-0.5605,-0.5623,-0.5625,-0.5648,-0.5687,-0.5685,-0.5708,-0.5725,-0.5729,-0.5767,-0.5774,-0.5778,-0.5796,-0.5803,-0.5806,-0.5828,-0.5827,-0.5795,-0.5789,-0.5784,-0.578,-0.584,0,0,0,0,0,-0.5547,-0.5558,-0.5599,-0.5597,-0.5608,-0.5644,-0.5653,-0.5676,-0.5701,-0.571,-0.5736,-0.5758,-0.5773,-0.5782,-0.5798,-0.5797,-0.5806,-0.5794,-0.5789,-0.5785,-0.5783,-0.5786,-0.5781,-0.583,-0.583,-0.583,0,0,-0.5524,-0.5551,-0.5556,-0.5588,-0.5608,-0.5619,-0.5652,-0.5662,-0.567,-0.5711,-0.5721,-0.5741,-0.5768,-0.5772,-0.5775,-0.5787,-0.5772,-0.5782,-0.5779,-0.578,-0.5783,-0.5778,-0.5774,-0.5829,-0.5829,-0.5829,0,0,-0.5489,-0.551,-0.5512,-0.5532,-0.5562,-0.5587,-0.5588,-0.5624,-0.5639,-0.565,-0.5682,-0.5692,-0.5717,-0.5736,-0.5749,-0.5723,-0.5746,-0.5727,-0.5702,-0.5703,-0.57,-0.5696,-0.5688,-0.5685,-0.5725,-0.5725,-0.5725,0,-0.5456,-0.5475,-0.551,-0.5519,-0.5532,-0.5571,-0.5574,-0.5591,-0.5624,-0.5633,-0.5646,-0.5679,-0.57,-0.571,-0.5704,-0.5713,-0.5715,-0.5723,-0.5697,-0.5695,-0.5692,-0.5685,-0.5681,-0.5723,-0.5723,-0.5723,-0.5724,0,-0.5434,-0.5447,-0.5445,-0.5478,-0.5491,-0.5496,-0.5532,-0.5542,-0.5563,-0.5587,-0.5598,-0.5625,-0.5648,-0.5652,-0.5673,-0.5665,-0.5672,-0.569,-0.5713,-0.5684,-0.5678,-0.5675,-0.572,-0.572,-0.5721,-0.5722,0,0,-0.5367,-0.5421,-0.542,-0.5436,-0.5473,-0.5484,-0.5491,-0.5515,-0.5522,-0.5544,-0.5552,-0.5573,-0.5592,-0.5606,-0.563,-0.5631,-0.5611,-0.565,-0.5651,-0.5642,-0.5605,-0.5591,-0.5587,-0.5626,-0.5626,-0.5625,-0.5603,0,-0.5338,-0.5355,-0.5388,-0.5394,-0.5407,-0.5445,-0.5452,-0.5475,-0.5498,-0.5512,-0.5536,-0.5551,-0.5574,-0.5583,-0.5586,-0.5612,-0.5604,-0.5614,-0.5634,-0.5634,-0.5626,-0.5584,-0.5569,-0.5546,-0.5601,-0.56,-0.56,0,-0.5307,-0.5328,-0.5336,-0.5375,-0.5381,-0.5387,-0.5412,-0.5424,-0.5452,-0.5469,-0.5486,-0.5513,-0.5523,-0.5544,-0.5559,-0.5566,-0.5576,-0.559,-0.559,-0.5593,-0.5615,-0.5586,-0.554,-0.5536,-0.5596,-0.5597,-0.5597,0,-0.5258,-0.5289,-0.5298,-0.5311,-0.5355,-0.5359,-0.5377,-0.5406,-0.5419,-0.5441,-0.545,-0.5472,-0.5484,-0.5501,-0.5533,-0.5545,-0.5545,-0.5568,-0.556,-0.5559,-0.5558,-0.5557,-0.5513,-0.5563,-0.5563,-0.5563,-0.5564,0,-0.5223,-0.5226,-0.5277,-0.5283,-0.5288,-0.5326,-0.533,-0.5352,-0.5378,-0.5389,-0.5423,-0.5432,-0.5474,-0.5488,-0.5513,-0.5523,-0.5528,-0.5542,-0.5549,-0.5539,-0.5538,-0.5546,-0.5549,-0.5563,-0.5563,-0.5563,-0.5563,0,-0.5169,-0.5203,-0.5216,-0.5258,-0.5269,-0.5271,-0.5307,-0.5314,-0.5339,-0.5352,-0.5358,-0.5397,-0.5416,-0.545,-0.5478,-0.5495,-0.55,-0.5511,-0.549,-0.5494,-0.5484,-0.5485,-0.5444,-0.5441,-0.5493,-0.5492,-0.5492,0,-0.5144,-0.5148,-0.5191,-0.5202,-0.5219,-0.5235,-0.5249,-0.5286,-0.5299,-0.5333,-0.5336,-0.5357,-0.5377,-0.5405,-0.5436,-0.5458,-0.5471,-0.5455,-0.5474,-0.5465,-0.5471,-0.5471,-0.5472,-0.545,-0.5449,-0.5449,-0.5448,0,-0.5097,-0.5115,-0.5133,-0.5158,-0.5174,-0.5195,-0.5218,-0.5224,-0.5267,-0.528,-0.53,-0.5315,-0.5345,-0.5367,-0.5393,-0.5413,-0.5438,-0.5442,-0.5442,-0.5432,-0.542,-0.5427,-0.5479,-0.5443,-0.5443,-0.5444,-0.5444,-0.5444,-0.5058,-0.5064,-0.5096,-0.5116,-0.5137,-0.5158,-0.5168,-0.5195,-0.5213,-0.5241,-0.5262,-0.5281,-0.531,-0.5349,-0.5367,-0.5383,-0.5394,-0.5393,-0.5393,-0.5392,-0.5389,-0.5418,-0.5388,-0.5388,-0.5388,-0.5388,-0.5388,0,-0.5014,-0.5036,-0.5055,-0.5086,-0.5102,-0.5126,-0.5153,-0.5165,-0.5181,-0.5207,-0.5226,-0.525,-0.5271,-0.5305,-0.5329,-0.5335,-0.5347,-0.534,-0.534,-0.5345,-0.5376,-0.5375,-0.533,-0.533,-0.533,-0.533,-0.533,-0.533,-0.4992,-0.5004,-0.5025,-0.5048,-0.5071,-0.5091,-0.5104,-0.5124,-0.5145,-0.5171,-0.5189,-0.5211,-0.5241,-0.5268,-0.5289,-0.5298,-0.5305,-0.5295,-0.5308,-0.5337,-0.5342,-0.5347,-0.5346,-0.5296,-0.5296,-0.5275,-0.5275,-0.5274]},{"header":{"parameterUnit":"m.s-1","parameterCategory":1,"la1":30.2991,"la2":30.254,"lo1":-89.0895,"lo2":-89.0444,"dy":0.0017,"dx":0.0017,"nx":28,"ny":28,"refTime":"2023-08-20T03:00:00:Z","depth":0,"parameterNumber":3,"parameterNumberName":"V-component_of_WINDS"},"data":[0,0,0,0,0,0,0,0,0,0,0,0,0,0,0,0,0,0,0,0,0,0,0,0,0,0,0,0,0,0,0,0,0,0,0,0,0,0,0,0,0,0,0,0,0,0,0,0,0,0,0,0,0,0,0,0,0,0,2.3003,2.3002,0,2.2954,2.2954,2.2953,2.2899,2.2898,2.2897,2.2896,2.2844,2.2843,2.2843,0,0,0,0,0,0,0,0,0,0,0,0,0,2.3045,2.3044,2.3003,2.3002,2.3001,2.2955,2.2954,2.2953,2.2899,2.2898,2.2897,2.2896,2.2844,2.2843,2.2843,0,0,0,0,0,0,0,0,0,0,0,0,0,2.3015,2.3044,2.3003,2.2969,2.2965,2.2955,2.2954,2.2953,2.2899,2.2898,2.2896,2.2895,2.2844,2.2843,2.2842,2.2861,0,0,2.284,2.2839,0,0,0,0,0,0,0,0,2.3016,2.3013,2.2974,2.2971,2.2967,2.2931,2.295,2.2922,2.2899,2.2924,2.2896,2.2895,2.2874,2.287,2.2864,2.2858,2.2856,2.2839,2.2839,2.2838,2.2838,0,0,0,0,0,0,0,2.3019,2.3015,2.2983,2.2974,2.2969,2.2955,2.2949,2.2944,2.2906,2.2922,2.2918,2.2913,2.2871,2.2865,2.2862,2.2855,2.2839,2.2839,2.2838,2.2838,2.2861,2.2862,0,0,0,0,0,0,2.3026,2.3017,2.2985,2.2982,2.2989,2.2955,2.2949,2.2944,2.2906,2.2899,2.2914,2.291,2.2867,2.2863,2.286,2.2878,2.2838,2.2838,2.2837,2.286,2.2862,2.2863,0,0,0,0,0,0,2.3027,2.3024,2.2987,2.2998,2.2993,2.2956,2.2951,2.2944,2.2937,2.29,2.2893,2.2914,2.2866,2.2861,2.2861,2.2875,2.2837,2.2836,2.2859,2.2861,2.2862,2.2914,0,0,0,0,0,0,2.3029,2.3025,2.3032,2.2999,2.2992,2.299,2.2952,2.2944,2.2936,2.2931,2.2899,2.2892,2.2865,2.2863,2.286,2.2873,2.2835,2.2857,2.2859,2.2862,2.2911,2.2918,2.2923,0,0,0,0,0,2.303,2.3048,2.3032,2.3029,2.3,2.299,2.2986,2.2956,2.2937,2.2943,2.292,2.2893,2.2875,2.2863,2.286,2.2873,2.2856,2.2859,2.2861,2.2908,2.2917,2.2923,0,0,0,0,0,0,2.3082,2.3043,2.3025,2.3033,2.3016,2.2981,2.2988,2.2965,2.2952,2.2948,2.2909,2.2902,2.2906,2.289,2.2877,2.2888,2.2861,2.2864,2.2898,2.2906,2.2912,2.2915,2.2835,0,0,0,0,0,2.3095,2.309,2.3056,2.3066,2.3059,2.3025,2.302,2.2998,2.2978,2.297,2.2946,2.2927,2.2917,2.2911,2.2899,2.2909,2.2901,2.2917,2.2923,2.2928,2.293,2.2932,2.2939,2.2872,2.2872,2.2872,0,0,2.3119,2.3098,2.3097,2.3076,2.306,2.3056,2.3019,2.3016,2.3012,2.2969,2.2967,2.2949,2.2925,2.293,2.2931,2.2916,2.2947,2.2932,2.2936,2.2935,2.2936,2.2942,2.2948,2.2874,2.2873,2.2873,0,0,2.3163,2.3147,2.3152,2.3138,2.3114,2.3092,2.3094,2.3063,2.305,2.3048,2.3015,2.301,2.2993,2.2977,2.2967,2.3006,2.298,2.3003,2.3034,2.3037,2.3042,2.3047,2.3059,2.3064,2.3005,2.3005,2.3005,0,2.3196,2.3189,2.3158,2.3157,2.3148,2.3111,2.3116,2.3103,2.3076,2.3071,2.3056,2.3034,2.3015,2.3015,2.3025,2.3018,2.3018,2.3005,2.3045,2.3049,2.3052,2.3063,2.3068,2.3008,2.3008,2.3008,2.3007,0,2.3231,2.3227,2.3235,2.3211,2.3203,2.3206,2.3174,2.317,2.3149,2.3128,2.3126,2.3103,2.3086,2.3084,2.3064,2.3081,2.3073,2.3052,2.3024,2.3062,2.3072,2.3076,2.3012,2.3011,2.301,2.301,0,0,2.3303,2.3264,2.3267,2.3256,2.3228,2.3223,2.3224,2.3208,2.3205,2.3189,2.3187,2.3175,2.3155,2.3143,2.3121,2.3124,2.3154,2.3102,2.3101,2.3111,2.317,2.3185,2.319,2.3138,2.3139,2.3139,2.3172,0,2.334,2.3339,2.3311,2.3317,2.3312,2.3277,2.3277,2.326,2.3241,2.3233,2.3212,2.3203,2.3179,2.3172,2.3174,2.315,2.3165,2.3148,2.3134,2.3134,2.3139,2.3195,2.3211,2.3242,2.3175,2.3176,2.3176,0,2.3381,2.3369,2.3375,2.3347,2.3344,2.3344,2.3328,2.3322,2.3301,2.3287,2.3275,2.3249,2.3247,2.3222,2.3217,2.3206,2.3199,2.3187,2.3187,2.3183,2.3156,2.3191,2.3252,2.3256,2.3182,2.3182,2.3181,0,2.3431,2.3416,2.3417,2.3409,2.3377,2.3378,2.3364,2.3343,2.3335,2.3321,2.3315,2.33,2.3292,2.328,2.3251,2.3236,2.3249,2.3222,2.3235,2.3236,2.3238,2.3237,2.3296,2.3237,2.3237,2.3237,2.3237,0,2.3473,2.3478,2.3439,2.3439,2.3443,2.3412,2.3417,2.34,2.3381,2.3377,2.3346,2.3342,2.3305,2.3297,2.3275,2.3273,2.327,2.3257,2.3251,2.3259,2.326,2.3252,2.3248,2.3238,2.3238,2.3238,2.3237,0,2.3528,2.3503,2.3501,2.3472,2.3464,2.3469,2.3442,2.3441,2.3421,2.3417,2.3414,2.3382,2.3371,2.3342,2.3323,2.3308,2.3311,2.3301,2.3319,2.3314,2.3328,2.3327,2.3382,2.3387,2.3327,2.3328,2.3328,0,2.3556,2.3559,2.353,2.3525,2.3514,2.3507,2.3499,2.3469,2.3462,2.3439,2.3441,2.3428,2.3415,2.34,2.3374,2.3359,2.3347,2.3367,2.3344,2.3352,2.3345,2.3344,2.3343,2.3372,2.3372,2.3373,2.3374,0,2.3607,2.3594,2.3585,2.3572,2.3564,2.3551,2.3537,2.3535,2.3501,2.3495,2.3484,2.3475,2.3457,2.3443,2.3425,2.341,2.3385,2.3382,2.3383,2.3391,2.34,2.3393,2.333,2.338,2.3379,2.3379,2.3378,2.3378,2.3647,2.3648,2.3628,2.3619,2.3605,2.3593,2.359,2.3571,2.3561,2.3545,2.3527,2.3518,2.3497,2.347,2.3457,2.3448,2.3436,2.3439,2.3439,2.344,2.3443,2.3404,2.3445,2.3445,2.3445,2.3445,2.3444,0,2.3695,2.3681,2.3673,2.3654,2.3647,2.3627,2.3611,2.3605,2.3598,2.3582,2.3571,2.3558,2.3545,2.352,2.3504,2.3502,2.3491,2.3499,2.3498,2.3494,2.3456,2.3455,2.3509,2.3509,2.3509,2.3509,2.3509,2.3509,2.3719,2.3718,2.3704,2.3696,2.3682,2.3674,2.3666,2.3654,2.364,2.3628,2.3618,2.3602,2.3581,2.3564,2.3551,2.3544,2.3539,2.355,2.3539,2.3503,2.3497,2.3491,2.349,2.355,2.355,2.3577,2.3578,2.3578]}]]